x

8454049 - Quonset Point, Ri (qptr1) Weather Station

6:54 - Sun 21st Dec 2014 All times are EST. -5 hours from GMT.

  • Wind
    14mph, 17mph gusts
  • Sea Temp 42°f
  • Ar Temp 35°f
  • Sea Pressure 1026.5mb
  • 8454049 - Quonset Point, Ri
  • 8454049 - Quonset Point, Ri

More Historic Weather Station data

Upgrade to MSW Pro to gain access to the past 30 days of data for over 8000 Wavebouys and Weather Stations around the globe.

Join Pro

Comparision Forecast

View Surf forecast
   
Dom 12/21 6:54 14 17 mph 1026.5mb 42f 35f
6:48 13 15 mph 1026.6mb 42f 35f
6:42 14 16 mph 1026.6mb 42f 35f
6:36 11 16 mph 1026.6mb 42f 35f
6:30 14 17 mph 1026.5mb 42f 35f
6:24 14 17 mph 1026.3mb 42f 35f
6:18 15 20 mph 1026.2mb 42f 35f
6:12 14 17 mph 1026.2mb 42f 35f
6:06 13 17 mph 1026.1mb 42f 35f
6:00 14 17 mph 1026.1mb 42f 35f
5:54 15 17 mph 1026mb 42f 35f
5:48 14 16 mph 1026.1mb 42f 35f
5:42 14 17 mph 1026mb 42f 35f
5:36 14 16 mph 1026mb 42f 35f
5:30 13 15 mph 1026mb 42f 35f
5:24 13 15 mph 1026.1mb 42f 35f
5:18 13 15 mph 1026mb 42f 35f
5:12 13 16 mph 1025.9mb 42f 35f
5:06 14 17 mph 1025.8mb 42f 35f
5:00 15 18 mph 1025.7mb 42f 35f
4:54 15 18 mph 1025.7mb 42f 35f
4:48 14 17 mph 1025.7mb 42f 35f
4:42 15 17 mph 1025.6mb 42f 35f
4:36 14 20 mph 1025.5mb 42f 35f
4:30 16 18 mph 1025.5mb 42f 35f
4:24 14 16 mph 1025.4mb 42f 35f
4:18 13 17 mph 1025.3mb 42f 35f
4:12 14 16 mph 1025.3mb 42f 35f
4:06 14 16 mph 1025.3mb 42f 34f
4:00 14 16 mph 1025.3mb 42f 35f
3:54 13 16 mph 1025.4mb 42f 35f
3:48 14 15 mph 1025.3mb 42f 35f
3:42 11 15 mph 1025.2mb 42f 35f
3:36 14 16 mph 1025.2mb 42f 35f
3:30 14 17 mph 1025.1mb 42f 35f
3:24 15 17 mph 1025.1mb 42f 35f
3:18 14 17 mph 1025mb 42f 35f
3:12 15 17 mph 1025mb 42f 35f
3:06 14 17 mph 1025.1mb 42f 34f
3:00 16 17 mph 1025mb 42f 34f
2:54 14 17 mph 1025.1mb 42f 35f
2:48 15 17 mph 1025mb 43f 35f
2:42 15 17 mph 1025.1mb 43f 34f
2:36 15 18 mph 1025.1mb 43f 34f
2:30 15 17 mph 1025mb 43f 34f
2:24 14 16 mph 1025mb 43f 34f
2:18 15 17 mph 1024.9mb 43f 34f
2:12 14 16 mph 1025mb 43f 34f
2:06 13 16 mph 1025mb 43f 34f
2:00 14 17 mph 1024.9mb 43f 34f
1:54 13 16 mph 1024.9mb 43f 34f
1:48 14 17 mph 1024.8mb 43f 34f
1:42 15 18 mph 1024.7mb 43f 34f
1:36 13 16 mph 1024.7mb 43f 34f
1:30 14 17 mph 1024.6mb 43f 34f
1:24 14 18 mph 1024.6mb 43f 34f
1:18 14 20 mph 1024.6mb 43f 34f
1:12 15 17 mph 1024.6mb 43f 34f
1:06 16 18 mph 1024.6mb 43f 34f
1:00 13 17 mph 1024.6mb 43f 34f
12:54 13 17 mph 1024.4mb 43f 34f
12:48 15 17 mph 1024.4mb 43f 34f
12:42 14 18 mph 1024.5mb 43f 34f
12:36 13 16 mph 1024.5mb 43f 34f
12:30 13 16 mph 1024.6mb 43f 34f
12:24 13 16 mph 1024.5mb 43f 34f
12:18 13 16 mph 1024.5mb 43f 34f
12:12 15 18 mph 1024.6mb 43f 34f
12:06 15 17 mph 1024.6mb 43f 34f
12:00 14 18 mph 1024.6mb 43f 34f
11:54 15 17 mph 1024.7mb 43f 34f
11:48 14 17 mph 1024.8mb 43f 34f
11:42 13 18 mph 1024.9mb 43f 34f
11:36 14 17 mph 1024.9mb 43f 34f
11:30 14 17 mph 1025mb 43f 34f
11:24 15 17 mph 1025mb 43f 34f
11:18 16 18 mph 1025.1mb 43f 34f
11:12 14 16 mph 1025.2mb 43f 34f
11:06 14 17 mph 1025.2mb 43f 34f
11:00 14 17 mph 1025.3mb 43f 34f
10:54 17 20 mph 1025.4mb 43f 34f
10:48 14 18 mph 1025.5mb 43f 34f
10:42 14 17 mph 1025.6mb 43f 35f
10:36 15 17 mph 1025.6mb 43f 34f
10:30 14 17 mph 1025.7mb 43f 35f
10:24 14 17 mph 1025.7mb 43f 35f
10:18 15 17 mph 1025.7mb 43f 35f
10:12 15 17 mph 1025.7mb 43f 35f
10:06 14 17 mph 1025.8mb 43f 35f
10:00 15 18 mph 1025.7mb 43f 35f
9:54 15 17 mph 1025.8mb 43f 35f
9:48 15 17 mph 1025.9mb 43f 35f
9:42 14 17 mph 1025.8mb 43f 35f
9:36 14 17 mph 1025.8mb 43f 35f
9:30 15 17 mph 1025.7mb 43f 35f
9:24 14 16 mph 1025.7mb 43f 35f
9:18 14 15 mph 1025.7mb 43f 35f
9:12 11 15 mph 1025.7mb 43f 35f
9:06 10 15 mph 1025.6mb 42f 35f
9:00 11 14 mph 1025.6mb 42f 35f
8:54 11 14 mph 1025.5mb 42f 35f
8:48 11 14 mph 1025.4mb 42f 35f
8:42 13 16 mph 1025.4mb 42f 35f
8:36 11 15 mph 1025.4mb 42f 35f
8:30 11 14 mph 1025.3mb 42f 35f
8:24 13 14 mph 1025.3mb 42f 35f
8:18 13 15 mph 1025.2mb 42f 35f
8:12 11 15 mph 1025.2mb 42f 35f
8:06 11 15 mph 1025mb 42f 35f
8:00 14 16 mph 1024.9mb 42f 35f
7:54 13 14 mph 1025mb 42f 35f
7:48 10 16 mph 1025mb 42f 36f
7:42 13 16 mph 1025.1mb 42f 36f
7:36 11 15 mph 1025.1mb 42f 36f
7:30 13 16 mph 1025.1mb 42f 36f
7:24 11 16 mph 1025mb 42f 36f
7:18 14 16 mph 1024.9mb 42f 36f
7:12 14 17 mph 1024.9mb 42f 36f
7:06 14 16 mph 1024.9mb 42f 36f
7:00 13 15 mph 1024.9mb 42f 36f
6:54 13 16 mph 1024.8mb 42f 36f
6:48 11 15 mph 1024.7mb 42f 35f
6:42 13 15 mph 1024.7mb 42f 36f
6:36 13 15 mph 1024.7mb 42f 36f
6:30 13 15 mph 1024.6mb 42f 36f
6:24 13 16 mph 1024.6mb 42f 36f
6:18 13 15 mph 1024.5mb 42f 36f
6:12 11 15 mph 1024.6mb 42f 35f
6:06 11 14 mph 1024.7mb 42f 35f
6:00 9 13 mph 1024.7mb 42f 35f
5:54 13 16 mph 1024.7mb 42f 36f
5:48 13 16 mph 1024.6mb 42f 36f
5:42 11 15 mph 1024.5mb 42f 36f
5:36 13 16 mph 1024.5mb 42f 36f
5:30 13 16 mph 1024.4mb 42f 36f
5:24 13 15 mph 1024.3mb 42f 36f
5:18 14 16 mph 1024.3mb 42f 36f
5:12 15 17 mph 1024.2mb 42f 36f
5:06 13 17 mph 1024.1mb 42f 36f
5:00 14 16 mph 1024mb 42f 36f
4:54 15 17 mph 1024mb 42f 36f
4:48 14 16 mph 1024mb 42f 36f
4:42 14 17 mph 1024.1mb 42f 35f
4:36 13 16 mph 1024.1mb 42f 35f
4:30 14 17 mph 1024.1mb 42f 35f
4:24 14 16 mph 1024mb 42f 35f
4:18 13 16 mph 1024mb 42f 35f
4:12 13 15 mph 1024.1mb 42f 35f
4:06 11 14 mph 1024.2mb 42f 35f
4:00 10 13 mph 1024.1mb 42f 35f
3:54 10 13 mph 1024.1mb 42f 35f
3:48 9 13 mph 1024.2mb 42f 35f
3:42 10 13 mph 1024.2mb 42f 35f
3:36 11 14 mph 1024.2mb 42f 35f
3:30 11 14 mph 1024.3mb 43f 35f
3:24 11 15 mph 1024.3mb 43f 35f
3:18 11 15 mph 1024.2mb 43f 34f
3:12 13 15 mph 1024.2mb 43f 34f
3:06 13 15 mph 1024.3mb 43f 34f
3:00 10 13 mph 1024.5mb 43f 34f
2:54 10 13 mph 1024.5mb 43f 34f
2:48 10 11 mph 1024.6mb 43f 34f
2:42 10 11 mph 1024.6mb 43f 34f
2:36 9 13 mph 1024.6mb 43f 34f
2:30 11 15 mph 1024.6mb 43f 35f
2:24 11 15 mph 1024.6mb 43f 35f
2:18 11 15 mph 1024.6mb 43f 35f
2:12 16 18 mph 1024.5mb 43f 35f
2:06 15 18 mph 1024.5mb 43f 35f
2:00 14 18 mph 1024.4mb 43f 35f
1:54 15 17 mph 1024.4mb 43f 35f
1:48  -  mph 1024.4mb - -
1:42 15 17 mph 1024.3mb - 35f
1:36 14 16 mph 1024.4mb - 35f
1:30 11 16 mph 1024.4mb 43f 35f
1:24 13 15 mph 1024.4mb 43f 35f
1:18 10 15 mph 1024.4mb 43f 35f
1:12 9 13 mph 1024.4mb 43f 35f
1:06 9 14 mph 1024.4mb 43f 34f
1:00 9 11 mph 1024.4mb 43f 34f
12:54 8 13 mph 1024.3mb 43f 34f
12:48 9 16 mph 1024.3mb 43f 34f
12:42 13 15 mph 1024.2mb 43f 34f
12:36 14 16 mph 1024.1mb 43f 34f
12:30 14 16 mph 1024.1mb 43f 34f
12:24 11 16 mph 1024.2mb 43f 34f
12:18 13 16 mph 1024.2mb 43f 34f
12:12 14 16 mph 1024.2mb 43f 34f
12:06  -  mph - 43f -
12:00 13 15 mph 1024.4mb 43f 34f
Sáb 12/20 11:54 10 13 mph 1024.5mb 43f 34f
11:48 10 13 mph 1024.6mb 43f 33f
11:42 10 14 mph 1024.6mb 43f 33f
11:36 10 13 mph 1024.6mb 43f 33f
11:30 10 13 mph 1024.7mb 43f 33f
11:24 10 13 mph 1024.7mb 43f 33f
11:18 9 14 mph 1024.7mb 43f 33f
11:12 10 14 mph 1024.8mb 43f 33f
11:06 11 14 mph 1024.8mb 43f 33f
11:00 10 15 mph 1024.8mb 43f 33f
10:54 11 14 mph 1024.8mb 43f 32f
10:48 10 14 mph 1024.9mb 43f 33f
10:42 10 14 mph 1025mb 43f 32f
10:36 10 13 mph 1025mb 43f 32f
10:30 10 14 mph 1025mb 43f 32f
10:24 10 14 mph 1025mb 43f 32f
10:18 10 14 mph 1025mb 43f 32f
10:12 10 14 mph 1025mb 43f 32f
10:06 10 14 mph 1024.9mb 43f 32f
10:00 11 13 mph 1024.9mb 43f 32f
9:54 11 14 mph 1024.9mb 43f 32f
9:48 11 14 mph 1024.8mb 43f 32f
9:42 10 13 mph 1024.8mb 43f 32f
9:36 11 14 mph 1024.9mb 43f 32f
9:30 10 13 mph 1024.9mb 43f 32f
9:24 10 14 mph 1024.9mb 43f 32f
9:18 11 15 mph 1024.9mb 43f 32f
9:12 10 15 mph 1024.8mb 43f 32f
9:06 11 15 mph 1024.8mb 43f 32f
9:00 11 16 mph 1024.8mb 43f 32f
8:54 9 14 mph 1024.9mb 43f 32f
8:48 13 15 mph 1024.9mb 43f 32f
8:42 9 14 mph 1025mb 43f 32f
8:36 11 15 mph 1025mb 43f 32f
8:30 11 14 mph 1025mb 43f 32f
8:24 10 16 mph 1025mb 43f 32f
8:18 13 15 mph 1024.9mb 43f 32f
8:12 13 15 mph 1024.9mb 43f 32f
8:06 11 15 mph 1025mb 43f 32f
8:00 13 15 mph 1025mb 43f 32f
7:54 13 15 mph 1025mb 43f 32f
7:48 11 16 mph 1025mb 43f 33f
7:42 14 16 mph 1025mb 43f 33f
7:36 11 15 mph 1025mb 43f 33f
7:30 14 15 mph 1025.1mb 43f 33f
7:24 13 15 mph 1025.1mb 43f 33f
7:18 11 16 mph 1025.2mb 43f 33f
7:12 14 17 mph 1025.2mb 43f 34f
7:06 14 16 mph 1025.1mb 43f 33f
7:00 13 16 mph 1025.1mb 43f 34f
6:54 11 15 mph 1025.1mb 43f 34f
6:48 13 16 mph 1025mb 43f 34f
6:42 13 16 mph 1025mb 43f 34f
6:36 13 17 mph 1024.9mb 43f 34f
6:30 14 17 mph 1024.9mb 43f 34f
6:24 14 17 mph 1024.8mb 43f 34f
6:18 14 17 mph 1024.8mb 43f 34f
6:12 10 15 mph 1024.7mb 43f 34f
6:06 11 13 mph 1024.7mb 43f 34f
6:00 10 13 mph 1024.8mb 43f 34f
5:54 9 16 mph 1024.8mb 43f 34f
5:48 11 15 mph 1024.7mb 43f 35f
5:42 14 16 mph 1024.6mb 43f 34f
5:36 11 16 mph 1024.6mb 43f 34f
5:30 13 16 mph 1024.6mb 43f 34f
5:24 16 18 mph 1024.5mb 43f 34f
5:18 14 17 mph 1024.4mb 43f 34f
5:12 13 14 mph 1024.3mb 43f 34f
5:06 10 14 mph 1024.4mb 43f 34f
5:00 13 16 mph 1024.3mb 43f 34f
4:54 14 17 mph 1024.3mb 43f 34f
4:48 14 16 mph 1024.2mb 43f 35f
4:42 14 17 mph 1024.1mb 43f 35f
4:36 14 16 mph 1024mb 43f 35f
4:30 14 16 mph 1024mb 43f 35f
4:24 13 15 mph 1024.1mb 43f 35f
4:18 11 16 mph 1024.1mb 43f 36f
4:12 13 17 mph 1024mb 43f 35f
4:06 13 16 mph 1024mb 43f 36f
4:00 11 15 mph 1024mb 43f 36f
3:54 14 16 mph 1023.9mb 43f 36f
3:48 13 16 mph 1024mb 43f 36f
3:42 11 15 mph 1024mb 43f 36f
3:36 13 15 mph 1024mb 43f 36f
3:30 11 15 mph 1024mb 43f 36f
3:24 14 17 mph 1023.9mb 43f 36f
3:18 15 18 mph 1023.7mb 43f 36f
3:12 14 17 mph 1023.7mb 43f 36f
3:06 15 17 mph 1023.7mb 43f 36f
3:00 15 18 mph 1023.6mb 43f 36f
2:54 15 17 mph 1023.7mb 43f 36f
2:48 14 16 mph 1023.7mb 43f 36f
2:42 11 16 mph 1023.8mb 43f 36f
2:36 14 15 mph 1023.8mb 43f 36f
2:30 13 15 mph 1023.9mb 43f 36f
2:24 9 13 mph 1023.9mb 43f 36f
2:18 10 13 mph 1024mb 43f 36f
2:12 9 14 mph 1023.9mb 43f 36f
2:06 11 14 mph 1023.9mb 43f 36f
2:00 10 13 mph 1023.9mb 43f 36f
1:54 9 15 mph 1023.9mb 43f 36f
1:48 11 14 mph 1023.8mb 43f 36f
1:42 10 13 mph 1023.8mb 43f 36f
1:36 9 13 mph 1023.8mb 43f 36f
1:30 10 13 mph 1023.8mb 43f 36f
1:24 11 14 mph 1023.7mb 43f 36f
1:18 9 14 mph 1023.7mb 43f 36f
1:12 11 14 mph 1023.7mb 43f 36f
1:06 9 13 mph 1023.8mb 43f 36f
1:00 10 13 mph 1023.8mb 43f 35f
12:54 9 13 mph 1023.8mb 43f 35f
12:48 11 14 mph 1023.8mb 43f 35f
12:42 10 11 mph 1023.8mb 43f 35f
12:36 8 11 mph 1023.9mb 43f 35f
12:30 6 8 mph 1023.9mb 43f 35f
12:24 7 9 mph 1023.8mb 43f 35f
12:18 8 11 mph 1023.7mb 43f 35f
12:12 8 10 mph 1023.7mb 43f 35f
12:06 9 11 mph 1023.6mb 43f 35f
12:00 9 11 mph 1023.6mb 43f 35f
11:54 8 13 mph 1023.6mb 43f 35f
11:48 10 13 mph 1023.7mb 43f 34f
11:42 10 14 mph 1023.8mb 43f 34f
11:36 13 14 mph 1023.8mb 43f 34f
11:30 13 15 mph 1023.8mb 43f 34f
11:24 11 14 mph 1023.9mb 43f 34f
11:18 11 14 mph 1024.1mb 43f 34f
11:12 11 14 mph 1024.1mb 43f 34f
11:06 10 13 mph 1024.1mb 43f 34f
11:00 11 15 mph 1024.2mb 43f 33f
10:54 10 14 mph 1024.2mb 43f 33f
10:48 11 14 mph 1024.2mb 43f 33f
10:42 11 14 mph 1024.3mb 43f 33f
10:36 14 16 mph 1024.4mb 43f 33f
10:30 10 16 mph 1024.5mb 43f 33f
10:24 13 15 mph 1024.5mb 43f 33f
10:18 14 16 mph 1024.6mb 43f 33f
10:12 13 16 mph 1024.6mb 43f 33f
10:06 14 17 mph 1024.7mb 44f 33f
10:00 14 16 mph 1024.7mb 44f 33f
9:54 14 18 mph 1024.8mb 43f 33f
9:48 11 17 mph 1024.7mb 43f 33f
9:42 14 17 mph 1024.8mb 43f 33f
9:36 14 16 mph 1024.8mb 43f 32f
9:30 11 17 mph 1024.7mb 43f 32f
9:24 14 17 mph 1024.7mb 43f 32f
9:18 13 16 mph 1024.6mb 43f 32f
9:12 14 16 mph 1024.5mb 43f 32f
9:06 13 18 mph 1024.6mb 43f 32f
9:00 14 17 mph 1024.5mb 43f 32f
8:54 11 14 mph 1024.6mb 43f 32f
8:48 10 15 mph 1024.7mb 43f 31f
8:42 11 14 mph 1024.6mb 43f 32f
8:36 11 14 mph 1024.7mb 43f 31f
8:30 13 15 mph 1024.6mb 43f 31f
8:24 9 11 mph 1024.6mb 43f 31f
8:18 9 11 mph 1024.6mb 43f 31f
8:12 10 13 mph 1024.5mb 43f 31f
8:06 10 13 mph 1024.4mb 43f 31f
8:00 10 11 mph 1024.4mb 43f 31f
7:54 10 13 mph 1024.3mb 43f 31f
7:48 8 10 mph 1024.3mb 43f 31f
7:42 8 10 mph 1024.3mb 43f 31f
7:36 8 10 mph 1024.2mb 43f 31f
7:30 6 10 mph 1024.2mb 43f 31f
7:24 8 10 mph 1024.1mb 43f 31f
7:18 8 9 mph 1023.9mb 43f 31f
7:12 8 11 mph 1023.9mb 43f 31f
7:06 8 11 mph 1023.8mb 43f 31f
7:00 8 13 mph 1023.7mb 43f 31f
6:54 9 11 mph 1023.6mb 43f 31f
6:48 10 13 mph 1023.5mb 43f 31f
6:42 8 9 mph 1023.4mb 43f 31f
6:36 8 9 mph 1023.5mb 43f 31f
6:30 7 8 mph 1023.5mb 43f 31f
6:24 7 9 mph 1023.4mb 43f 31f
6:18 7 9 mph 1023.3mb 43f 31f
6:12 7 9 mph 1023.2mb 43f 31f
6:06 8 10 mph 1023.1mb 43f 31f
6:00 7 9 mph 1023mb 43f 31f
5:54 7 10 mph 1022.9mb 43f 31f
5:48 9 11 mph 1022.8mb 43f 31f
5:42 9 11 mph 1022.6mb 43f 31f
5:36 9 11 mph 1022.5mb 43f 31f
5:30 7 10 mph 1022.5mb 43f 31f
5:24 7 11 mph 1022.4mb 43f 31f
5:18 8 10 mph 1022.3mb 43f 31f
5:12 8 11 mph 1022.3mb 43f 31f
5:06 7 8 mph 1022.2mb 43f 30f
5:00 6 9 mph 1022.2mb 43f 30f
4:54 6 8 mph 1022.1mb 43f 30f
4:48 6 8 mph 1022.1mb 43f 30f
4:42 7 8 mph 1022mb 43f 29f
4:36 7 8 mph 1022mb 43f 29f
4:30 7 9 mph 1021.9mb 43f 29f
4:24 8 9 mph 1021.8mb 43f 29f
4:18 8 9 mph 1021.8mb 43f 29f
4:12 7 8 mph 1021.8mb 43f 29f
4:06 7 10 mph 1021.7mb 43f 29f
4:00 8 10 mph 1021.8mb 43f 29f
3:54 6 8 mph 1021.7mb 43f 29f
3:48 6 8 mph 1021.7mb 43f 29f
3:42 7 8 mph 1021.6mb 43f 29f
3:36 7 9 mph 1021.6mb 43f 29f
3:30 7 9 mph 1021.6mb 43f 29f
3:24 6 9 mph 1021.6mb 43f 29f
3:18 8 10 mph 1021.6mb 43f 29f
3:12 9 13 mph 1021.5mb 43f 29f
3:06 9 13 mph 1021.5mb 43f 29f
3:00 9 11 mph 1021.5mb 43f 29f
2:54 8 11 mph 1021.5mb 43f 29f
2:48 7 11 mph 1021.5mb 43f 29f
2:42 7 9 mph 1021.6mb 43f 29f
2:36 6 8 mph 1021.6mb 43f 29f
2:30 6
mph
1021.6mb 43f 29f
2:24 6
mph
1021.6mb 43f 29f
2:18 5 7 mph 1021.6mb 43f 29f
2:12 7 8 mph 1021.4mb 43f 29f
2:06 6 7 mph 1021.5mb 43f 29f
2:00 5 6 mph 1021.5mb 43f 29f
1:54 5 7 mph 1021.4mb 43f 29f
1:48 5 6 mph 1021.4mb 43f 29f
1:42 5 6 mph 1021.4mb 43f 29f
1:36 5 6 mph 1021.3mb 43f 29f
1:30 6 7 mph 1021.2mb 43f 29f
1:24 6 7 mph 1021.3mb 43f 29f
1:18 6 7 mph 1021.2mb 44f 29f
1:06 7 8 mph 1021mb 44f 29f
1:00 6 8 mph 1021mb 44f 29f
12:54 6 7 mph 1020.9mb 44f 30f
12:48 6 7 mph 1020.8mb 44f 30f
12:42 6 8 mph 1020.8mb 44f 30f
12:36 6 8 mph 1020.7mb 44f 30f
12:30 6 8 mph 1020.6mb 44f 30f
12:24 6 8 mph 1020.6mb 44f 30f
12:18 6 8 mph 1020.5mb 44f 30f
12:12 7 8 mph 1020.4mb 44f 30f
12:06 7 8 mph 1020.3mb 44f 30f
12:00 7 9 mph 1020.3mb 44f 31f
Sex 12/19 11:54 7 9 mph 1020.3mb 44f 31f
11:48 7 8 mph 1020.2mb 44f 31f
11:42 7 8 mph 1020.2mb 44f 31f
11:36 7 8 mph 1020.2mb 44f 31f
11:30 7 8 mph 1020.2mb 44f 31f
11:24 5 7 mph 1020.3mb 44f 31f
11:18 5 7 mph 1020.3mb 44f 32f
11:12 6 7 mph 1020.2mb 44f 31f
11:06 6 7 mph 1020.1mb 44f 31f
11:00 6 7 mph 1020mb 44f 31f
10:54 6 8 mph 1019.9mb 44f 31f
10:48 6 8 mph 1019.9mb 44f 31f
10:42 6 7 mph 1019.9mb 44f 32f
10:36 6 7 mph 1019.8mb 44f 32f
10:30 6 8 mph 1019.7mb 44f 32f
10:24 6 7 mph 1019.8mb 44f 32f
10:18 6 7 mph 1019.7mb 44f 32f
10:12 6 8 mph 1019.7mb 44f 32f
10:06 7 9 mph 1019.7mb 44f 33f
10:00 6 8 mph 1019.7mb 44f 33f
9:54 6 7 mph 1019.6mb 44f 33f
9:48 7 9 mph 1019.6mb 44f 33f
9:42 8 9 mph 1019.5mb 44f 33f
9:36 7 8 mph 1019.5mb 44f 33f
9:30 6 8 mph 1019.5mb 44f 33f
9:24 6 9 mph 1019.5mb 44f 33f
9:18 7 8 mph 1019.5mb 44f 33f
9:12 6 8 mph 1019.5mb 44f 33f
9:06 6 9 mph 1019.5mb 44f 33f
9:00 7 10 mph 1019.5mb 44f 33f
8:54 7 10 mph 1019.5mb 44f 33f
8:48 8 10 mph 1019.4mb 44f 34f
8:42 6 9 mph 1019.4mb 44f 34f
8:36 8 9 mph 1019.3mb 44f 33f
8:30 8 10 mph 1019.2mb 44f 34f
8:24 7 10 mph 1019.1mb 44f 34f
8:18 7 10 mph 1019.1mb 44f 34f
8:12 6 13 mph 1019mb 44f 34f
8:06 7 11 mph 1019mb 44f 34f
8:00 10 13 mph 1018.9mb 44f 34f
7:54 7 10 mph 1018.8mb 44f 34f
7:48 8 11 mph 1018.6mb 44f 34f
7:42 8 13 mph 1018.5mb 44f 34f
7:36 9 16 mph 1018.5mb 44f 34f
7:30 10 14 mph 1018.5mb 44f 34f
7:24 8 11 mph 1018.5mb 44f 34f
7:18 6 10 mph 1018.4mb 44f 34f
7:12 8 10 mph 1018.4mb 44f 35f
7:06 10 16 mph 1018.4mb 44f 35f
7:00 9 13 mph 1018.3mb 44f 35f
6:54 10 13 mph 1018.2mb 44f 35f
6:48 8 13 mph 1018.1mb 44f 35f
6:42 7 10 mph 1018mb 44f 35f
6:36 8 10 mph 1017.9mb 44f 35f
6:30 9 13 mph 1017.8mb 44f 35f
6:24 9 13 mph 1017.6mb 44f 35f
6:18 13 17 mph 1017.4mb 44f 35f
6:12 11 20 mph 1017.3mb 44f 35f
6:06 16 20 mph 1017.1mb 44f 35f
6:00 14 20 mph 1017.1mb 44f 35f
5:54 9 15 mph 1017.1mb 44f 35f
5:48 10 16 mph 1017mb 44f 35f
5:42 9 13 mph 1017mb 44f 35f
5:36 9 14 mph 1016.9mb 44f 35f
5:30 11 15 mph 1016.8mb 44f 35f
5:24 11 17 mph 1016.8mb 44f 35f
5:18 10 13 mph 1016.8mb 44f 35f
5:12 11 14 mph 1016.8mb 44f 35f
5:06 13 16 mph 1016.6mb 44f 35f
5:00 11 15 mph 1016.5mb 44f 35f
4:54 9 13 mph 1016.4mb 44f 36f
4:48 9 13 mph 1016.3mb 44f 35f
4:42 10 16 mph 1016.3mb 44f 36f
4:36 14 16 mph 1016.2mb 44f 36f
4:30 11 14 mph 1016.1mb 44f 36f
4:24 10 13 mph 1016mb 44f 36f
4:18 8 10 mph 1016mb 44f 36f
4:12 7 11 mph 1015.9mb 44f 36f
4:06 10 14 mph 1015.8mb 44f 36f
4:00 10 15 mph 1015.8mb 44f 36f
3:54 8 10 mph 1015.8mb 44f 36f
3:48 8 10 mph 1015.8mb 44f 36f
3:42 10 13 mph 1015.6mb 44f 36f
3:36 10 11 mph 1015.5mb 44f 36f
3:30 7 11 mph 1015.4mb 44f 36f
3:24 9 13 mph 1015.3mb 44f 36f
3:18 10 14 mph 1015.2mb 44f 36f
3:12 9 13 mph 1015.1mb 44f 36f
3:06 8 11 mph 1015mb 44f 36f
3:00 9 14 mph 1014.9mb 44f 36f
2:54 9 13 mph 1014.9mb 44f 36f
2:48 7 14 mph 1014.8mb 44f 36f
2:42 11 13 mph 1014.7mb 44f 36f
2:36 9 14 mph 1014.7mb 44f 36f
2:30 8 16 mph 1014.5mb 44f 37f
2:24 13 16 mph 1014.4mb 44f 36f
2:18 11 16 mph 1014.3mb 44f 36f
2:12 11 16 mph 1014.4mb 44f 36f
2:06 11 17 mph 1014.3mb 44f 36f
2:00 11 15 mph 1014.3mb 44f 37f
1:54 11 15 mph 1014.2mb 44f 37f
1:48 9 14 mph 1014.2mb 44f 37f
1:42 9 13 mph 1014.1mb 44f 36f
1:36 10 14 mph 1014.1mb 44f 37f
1:30 8 14 mph 1014mb 44f 37f
1:24 10 14 mph 1013.9mb 44f 36f
1:18 10 14 mph 1013.8mb 44f 36f
1:12 11 15 mph 1013.8mb 44f 36f
1:06 10 15 mph 1013.8mb 44f 37f
1:00 14 17 mph 1013.8mb 44f 37f
12:54 13 15 mph 1013.7mb 44f 36f
12:48 10 18 mph 1013.9mb 44f 37f
12:42 9 14 mph 1013.9mb 44f 37f
12:36 11 18 mph 1013.9mb 44f 37f
12:30 13 18 mph 1013.9mb 44f 37f
12:24 11 18 mph 1014mb 44f 37f
12:18 13 16 mph 1013.9mb 44f 37f
12:12 13 16 mph 1014mb 44f 37f
12:06 11 17 mph 1014mb 44f 37f
12:00 13 18 mph 1014.1mb 44f 37f
11:54 11 18 mph 1014.1mb 44f 37f
11:48 10 16 mph 1014mb 44f 37f
11:42 10 15 mph 1014.1mb 44f 37f
11:36 13 16 mph 1014.1mb 44f 37f
11:30 9 13 mph 1014mb 44f 37f
11:24 10 18 mph 1014.1mb 44f 37f
11:18 13 15 mph 1014.1mb 44f 37f
11:12 14 17 mph 1014.2mb 44f 37f
11:06 10 15 mph 1014.2mb 44f 37f
11:00 11 15 mph 1014.2mb 44f 37f
10:54 11 16 mph 1014.3mb 44f 37f
10:48 13 16 mph 1014.4mb 44f 37f
10:42 13 17 mph 1014.3mb 44f 37f
10:36 13 17 mph 1014.4mb 44f 37f
10:30 11 15 mph 1014.4mb 44f 37f
10:24 14 18 mph 1014.4mb 44f 37f
10:18 15 21 mph 1014.4mb 44f 37f
10:12 13 17 mph 1014.5mb 44f 37f
10:06 14 17 mph 1014.4mb 44f 36f
9:54 10 16 mph 1014.4mb 44f 37f
9:48 15 20 mph 1014.4mb 44f 36f
9:42 14 18 mph 1014.5mb 44f 37f
9:36 11 20 mph 1014.4mb 44f 37f
9:30 17 20 mph 1014.3mb 44f 36f
9:24 14 18 mph 1014.2mb 44f 36f
9:18 10 15 mph 1014.2mb 44f 36f
9:12 9 14 mph 1014.1mb 44f 37f
9:06 11 17 mph 1014mb 44f 36f
9:00 11 18 mph 1014mb 44f 36f
8:54 14 21 mph 1013.9mb 44f 36f
8:48 11 18 mph 1013.8mb 44f 36f
8:42 8 16 mph 1013.9mb 44f 37f
8:36 13 16 mph 1013.9mb 44f 36f
8:30 9 15 mph 1013.8mb 44f 37f
8:24 8 14 mph 1013.7mb 44f 36f
8:18 7 10 mph 1013.7mb 44f 36f
8:12 6 10 mph 1013.7mb 44f 36f
8:06 6 9 mph 1013.6mb 44f 35f
8:00 6 10 mph 1013.6mb 44f 35f
7:54 5 8 mph 1013.5mb 44f 35f
7:48 6 10 mph 1013.4mb 44f 35f
7:42 8 10 mph 1013.4mb 44f 35f
7:36 8 11 mph 1013.3mb 44f 35f
7:30 8 11 mph 1013.2mb 44f 35f
7:24 7 10 mph 1013.2mb 44f 34f
7:18 8 11 mph 1013.2mb 44f 35f
7:12 8 10 mph 1013mb 44f 34f
7:06 8 9 mph 1013mb 44f 35f
7:00 8 11 mph 1012.9mb 44f 35f
6:54 9 11 mph 1012.9mb 44f 34f
6:48 9 10 mph 1012.8mb 44f 35f
6:42 9 11 mph 1012.8mb 44f 35f
6:36 9 11 mph 1012.7mb 44f 35f
6:30 9 13 mph 1012.7mb 44f 34f
6:24 9 13 mph 1012.7mb 44f 34f
6:18 9 11 mph 1012.6mb 44f 34f
6:12 10 13 mph 1012.6mb 44f 34f
6:06 11 14 mph 1012.5mb 44f 34f
6:00 10 13 mph 1012.5mb 44f 35f
5:54 9 11 mph 1012.5mb 44f 35f
5:48 8 11 mph 1012.4mb 44f 34f
5:42 9 11 mph 1012.4mb 44f 34f
5:36 9 13 mph 1012.4mb 44f 34f
5:30 10 13 mph 1012.3mb 44f 34f
5:24 9 13 mph 1012.2mb 44f 35f
5:18 9 14 mph 1012.1mb 44f 35f
5:12 10 14 mph 1012.2mb 44f 35f
5:06 9 14 mph 1012.2mb 44f 35f
5:00 11 14 mph 1012.1mb 44f 35f
4:54 9 14 mph 1012.1mb 44f 35f
4:48 9 13 mph 1012.2mb 44f 35f
4:42 9 13 mph 1012.1mb 44f 35f
4:36 9 11 mph 1012.1mb 44f 35f
4:30 9 13 mph 1012.1mb 44f 35f
4:24 9 13 mph 1012.1mb 44f 35f
4:18 9 13 mph 1012.1mb 44f 35f
4:12 9 11 mph 1012.1mb 44f 35f
4:06 8 13 mph 1012mb 44f 35f
4:00 9 11 mph 1012mb 44f 35f
3:54 8 11 mph 1012mb 44f 35f
3:48 8 10 mph 1012mb 44f 35f
3:42 6 9 mph 1012mb 44f 36f
3:36 7 9 mph 1012mb 44f 36f
3:30 7 10 mph 1012mb 44f 36f
3:24 8 10 mph 1012mb 44f 36f
3:18 7 10 mph 1012.1mb 44f 36f
3:12 8 11 mph 1012.1mb 44f 36f
3:06 7 9 mph 1012.1mb 44f 36f
3:00 6 9 mph 1012.1mb 44f 36f
2:54 6 8 mph 1012.1mb 44f 36f
2:48 8 9 mph 1012.1mb 44f 36f
2:42 6 7 mph 1012.1mb 44f 36f
2:36 5 9 mph 1012mb 44f 36f
2:30 6 8 mph 1011.9mb 44f 36f
2:24 6 8 mph 1011.9mb 44f 36f
2:18 6 8 mph 1011.9mb 44f 36f
2:12 6 9 mph 1011.9mb 44f 36f
2:06 6 9 mph 1012mb 44f 36f
2:00 6 9 mph 1012mb 44f 36f
1:54 7 10 mph 1012mb 44f 36f
1:48 6 11 mph 1012mb 44f 36f
1:42 9 11 mph 1012mb 44f 36f
1:36 7 9 mph 1011.9mb 44f 36f
1:30 8 10 mph 1011.9mb 44f 36f
1:24 8 11 mph 1011.8mb 44f 36f
1:18 9 11 mph 1011.7mb 44f 36f
1:12 8 11 mph 1011.7mb 44f 36f
1:06 8 10 mph 1011.8mb 44f 36f
1:00 9 10 mph 1011.9mb 44f 36f
12:54 9 11 mph 1011.9mb 44f 36f
12:48 7 10 mph 1012mb 44f 37f
12:42 8 10 mph 1012mb 44f 36f
12:36 8 9 mph 1012mb 44f 36f
12:30 8 9 mph 1012mb 44f 37f
12:24 7 9 mph 1012mb 44f 36f
12:18 6 9 mph 1012mb 44f 36f
12:12 7 9 mph 1012.1mb 44f 36f
12:06 7 9 mph 1012.1mb 44f 36f
12:00 8 9 mph 1012.2mb 44f 36f
Qui 12/18 11:54 8 10 mph 1012.2mb 44f 36f
11:48 8 9 mph 1012.2mb 44f 36f
11:42 8 9 mph 1012.2mb 44f 36f
11:36 7 9 mph 1012.1mb 44f 36f
11:30 7 9 mph 1012.1mb 44f 36f
11:24 7 10 mph 1012.1mb 44f 36f
11:18 6 9 mph 1012.1mb 44f 36f
11:12 7 9 mph 1012.1mb 44f 36f
11:06 7 9 mph 1012mb 44f 36f
11:00 6 9 mph 1012mb 44f 36f
10:54 7 8 mph 1012.1mb 44f 36f
10:48 7 8 mph 1012mb 44f 36f
10:42  -  mph - 44f -
10:36 7 10 mph 1011.9mb 44f 36f
10:30 6 10 mph 1011.9mb 44f 35f
10:24 7 10 mph 1011.8mb 45f 36f
10:18 8 10 mph 1011.8mb 45f 36f
10:12 8 11 mph 1011.8mb 45f 36f
10:06 7 9 mph 1011.9mb 45f 36f
10:00 7 10 mph 1011.9mb 45f 36f
9:54 8 10 mph 1011.8mb 45f 36f
9:48 8 11 mph 1011.7mb 45f 36f
9:42 8 10 mph 1011.7mb 45f 37f
9:36 7 9 mph 1011.7mb 45f 36f
9:30 7 8 mph 1011.7mb 45f 36f
9:24 7 9 mph 1011.7mb 45f 37f
9:18 8 9 mph 1011.8mb 45f 37f
9:12 7 9 mph 1011.9mb 45f 37f
9:06 7 9 mph 1011.9mb 45f 37f
9:00 8 9 mph 1011.8mb 45f 37f
8:54 8 10 mph 1011.8mb 45f 37f
8:48 8 9 mph 1011.8mb 45f 38f
8:42 7 10 mph 1011.8mb 45f 38f
8:36 6 7 mph 1011.6mb 45f 38f
8:30 5 8 mph 1011.4mb 45f 37f
8:24 6 8 mph 1011.3mb 45f 38f
8:18 7 9 mph 1011.4mb 45f 38f
8:12 7 10 mph 1011.3mb 45f 38f
8:06 7 11 mph 1011.5mb 45f 38f
8:00 9 11 mph 1011.4mb 45f 38f
7:54 7 11 mph 1011.3mb 45f 38f
7:48 9 13 mph 1011.3mb 45f 38f
7:42 6 7 mph 1011.4mb 45f 38f
7:36 7 9 mph 1011.6mb 45f 38f
7:30 7 10 mph 1011.7mb 45f 38f
7:24 8 10 mph 1011.7mb 45f 39f
7:18 7 13 mph 1011.7mb 45f 39f
7:12 7 10 mph 1011.7mb 45f 39f
7:06 9 17 mph 1011.7mb 45f 39f
7:00 8 13 mph 1011.7mb 45f 39f
6:54 7 14 mph 1011.7mb 45f 39f
6:48 10 14 mph 1011.9mb 45f 39f
6:42 9 13 mph 1011.9mb 45f 39f
6:36 9 13 mph 1011.9mb 45f 39f
6:30 10 14 mph 1011.8mb 45f 39f
6:24 11 14 mph 1011.7mb 45f 39f
6:18 7 10 mph 1011.7mb 45f 38f
6:12 10 11 mph 1011.7mb 45f 38f
6:06 7 11 mph 1011.6mb 45f 38f
6:00 8 11 mph 1011.6mb 45f 39f
5:54 7 9 mph 1011.5mb 45f 39f
5:48 7 10 mph 1011.4mb 45f 39f
5:42 8 13 mph 1011.3mb 45f 39f
5:36 9 13 mph 1011.1mb 45f 39f
5:30 9 14 mph 1011mb 45f 39f
5:24 8 11 mph 1010.9mb 45f 39f
5:18 8 11 mph 1011mb 45f 40f
5:12 9 11 mph 1010.9mb 45f 40f
5:06 7 13 mph 1010.9mb 45f 40f
5:00 8 15 mph 1010.8mb 45f 40f
4:54 9 17 mph 1010.7mb 45f 40f
4:48 11 15 mph 1010.6mb 45f 40f
4:42 9 13 mph 1010.6mb 45f 40f
4:36 8 18 mph 1010.6mb 45f 40f
4:30 15 18 mph 1010.5mb 45f 41f
4:24 13 16 mph 1010.3mb 45f 41f
4:18 10 17 mph 1010.4mb 45f 41f
4:12 11 14 mph 1010.2mb 45f 41f
4:06 8 13 mph 1010.2mb 45f 41f
4:00 9 14 mph 1010mb 45f 42f
3:54 14 21 mph 1009.9mb 45f 42f
3:48 11 16 mph 1009.9mb 45f 42f
3:42 13 16 mph 1009.9mb 45f 42f
3:36 11 18 mph 1009.9mb 45f 42f
3:30 10 17 mph 1009.8mb 45f 42f
3:24 15 18 mph 1009.8mb 45f 42f
3:18 9 14 mph 1009.8mb 45f 42f
3:12 11 20 mph 1009.8mb 45f 42f
3:06 14 18 mph 1009.7mb 45f 42f
3:00 14 21 mph 1009.7mb 45f 42f
2:54 13 18 mph 1009.7mb 45f 42f
2:48 15 20 mph 1009.6mb 45f 42f
2:42 13 20 mph 1009.6mb 45f 42f
2:36 13 21 mph 1009.5mb 45f 42f
2:30 11 18 mph 1009.4mb 45f 42f
2:24 11 20 mph 1009.4mb 45f 42f
2:18 16 22 mph 1009.3mb 45f 42f
2:12 14 20 mph 1009.2mb 45f 42f
2:06 16 21 mph 1009.2mb 45f 42f
2:00 10 15 mph 1009.2mb 45f 42f
1:54 14 23 mph 1009.2mb 45f 42f
1:48 10 18 mph 1009mb 45f 42f
1:42 14 20 mph 1009mb 45f 42f
1:36 17 23 mph 1008.9mb 45f 42f
1:30 14 21 mph 1008.9mb 45f 42f
1:24 16 22 mph 1008.8mb 45f 42f
1:18 15 25 mph 1008.9mb 45f 42f
1:12 16 22 mph 1008.9mb 45f 42f
1:06 16 23 mph 1009mb 45f 42f
1:00 15 26 mph 1009.1mb 45f 42f
12:54 18 24 mph 1009mb 45f 42f
12:48 14 22 mph 1009mb 45f 42f
12:42 18 24 mph 1009mb 45f 41f
12:36 15 25 mph 1009mb 45f 42f
12:30 20 25 mph 1009.1mb 45f 41f
12:24 16 26 mph 1009.1mb 45f 42f
12:18 22 29 mph 1009.1mb 45f 42f
12:12 16 24 mph 1009.2mb 45f 42f
12:06 20 29 mph 1009.3mb 45f 41f
12:00 18 31 mph 1009.3mb 45f 41f
11:54 20 29 mph 1009.3mb 45f 42f
11:48 18 24 mph 1009.4mb 45f 42f
11:42 14 24 mph 1009.4mb 45f 42f
11:36 21 30 mph 1009.4mb 44f 42f
11:30 15 22 mph 1009.6mb 44f 42f
11:24 20 25 mph 1009.6mb 44f 42f
11:18 20 29 mph 1009.6mb 44f 42f
11:12 21 29 mph 1009.4mb 44f 42f
11:06 18 24 mph 1009.5mb 44f 42f
11:00 14 23 mph 1009.5mb 44f 42f
10:54 14 23 mph 1009.5mb 44f 42f
10:48 21 29 mph 1009.6mb 43f 42f
10:42 17 28 mph 1009.6mb 43f 42f
10:36 22 29 mph 1009.5mb 43f 42f
10:30 11 25 mph 1009.6mb 43f 42f
10:24 17 25 mph 1009.6mb 43f 42f
10:18 18 25 mph 1009.6mb 43f 42f
10:12 18 24 mph 1009.7mb 43f 42f
10:06 15 22 mph 1009.7mb 43f 42f
10:00 20 24 mph 1009.6mb 43f 41f
9:54 17 24 mph 1009.7mb 43f 41f
9:48 14 20 mph 1009.7mb 43f 41f
9:42 18 26 mph 1009.7mb 43f 41f
9:36 16 22 mph 1009.7mb 43f 41f
9:30 14 24 mph 1009.7mb 43f 40f
9:24 14 22 mph 1009.7mb 43f 40f
9:18 15 21 mph 1009.5mb 43f 40f
9:12 18 25 mph 1009.5mb 43f 39f
9:06 16 24 mph 1009.5mb 43f 39f
9:00 15 23 mph 1009.5mb 43f 39f
8:54 16 25 mph 1009.5mb 43f 39f
8:48 15 23 mph 1009.4mb 43f 39f
8:42 17 21 mph 1009.3mb 43f 39f
8:36 15 28 mph 1009.3mb 43f 39f
8:30 16 23 mph 1009.1mb 44f 38f
8:24 15 22 mph 1009.1mb 44f 38f
8:18 15 22 mph 1009.1mb 44f 38f
8:12 16 24 mph 1009mb 44f 38f
8:06 17 23 mph 1008.8mb 44f 38f
8:00 18 25 mph 1008.9mb 44f 38f
7:54 16 24 mph 1008.8mb 44f 38f
7:48 13 20 mph 1008.7mb 43f 37f
7:42 14 21 mph 1008.7mb 43f 37f
7:36 15 22 mph 1008.6mb 43f 37f
7:30 10 20 mph 1008.6mb 43f 38f
7:24 11 23 mph 1008.6mb 43f 37f
7:18 15 18 mph 1008.5mb 43f 37f
7:12 11 17 mph 1008.6mb 43f 38f
7:06 11 17 mph 1008.6mb 44f 38f
7:00 15 24 mph 1008.5mb 43f 38f
6:54 17 24 mph 1008.5mb 43f 38f
6:48 17 22 mph 1008.5mb 43f 38f
6:42 15 20 mph 1008.5mb 43f 38f
6:36 15 21 mph 1008.4mb 43f 38f
6:30 15 23 mph 1008.4mb 43f 38f
6:24 16 23 mph 1008.4mb 43f 39f
6:18 17 24 mph 1008.4mb 43f 39f
6:12 16 25 mph 1008.2mb 43f 39f
6:06 17 26 mph 1008.2mb 42f 39f
6:00 16 23 mph 1008.2mb 42f 39f
5:54 15 20 mph 1008.1mb 42f 39f
5:48 15 23 mph 1008.1mb 42f 40f
5:42 11 18 mph 1008.1mb 42f 40f
5:36 16 22 mph 1008mb 42f 40f
5:30 11 20 mph 1007.9mb 42f 40f
5:24 11 18 mph 1007.8mb 42f 40f
5:18 11 17 mph 1007.7mb 42f 40f
5:12 14 17 mph 1007.7mb 42f 40f
5:06 15 23 mph 1007.6mb 42f 40f
5:00 11 18 mph 1007.6mb 42f 40f
4:54 15 18 mph 1007.7mb 42f 40f
4:48 14 17 mph 1007.7mb 42f 40f
4:42 10 14 mph 1007.7mb 42f 40f
4:36 10 14 mph 1007.7mb 42f 40f
4:30 9 11 mph 1007.6mb 42f 40f
4:24 10 14 mph 1007.6mb 42f 39f
4:18 10 14 mph 1007.6mb 42f 39f
4:12 14 16 mph 1007.5mb 42f 39f
4:06 11 16 mph 1007.5mb 42f 39f
4:00 13 16 mph 1007.5mb 42f 39f
3:54 14 16 mph 1007.5mb 42f 39f
3:48 11 14 mph 1007.6mb 43f 39f
3:42 11 14 mph 1007.6mb 43f 39f
3:36 11 14 mph 1007.6mb 43f 39f
3:30 10 13 mph 1007.6mb 43f 39f
3:24 11 14 mph 1007.5mb 43f 39f
3:18 9 14 mph 1007.3mb 44f 39f
3:12 9 16 mph 1007.3mb 44f 39f
3:06 8 13 mph 1007.4mb 44f 39f
3:00 9 13 mph 1007.4mb 44f 39f
2:54 11 15 mph 1007.4mb 44f 39f
2:48 11 15 mph 1007.5mb 44f 39f
2:42 13 16 mph 1007.6mb 44f 39f
2:36 13 16 mph 1007.6mb 44f 39f
2:30 10 15 mph 1007.6mb 44f 39f
2:24 10 17 mph 1007.6mb 44f 39f
2:18 10 15 mph 1007.6mb 44f 39f
2:12 13 16 mph 1007.6mb 44f 39f
2:06 11 14 mph 1007.6mb 44f 39f
2:00 11 14 mph 1007.7mb 44f 39f
1:54 10 14 mph 1007.7mb 44f 39f
1:48 11 18 mph 1007.7mb 44f 39f
1:42 13 16 mph 1007.8mb 44f 39f
1:36 11 15 mph 1007.7mb 44f 39f
1:30 13 17 mph 1007.7mb 43f 39f
1:24 13 17 mph 1007.6mb 43f 39f
1:18 15 21 mph 1007.4mb 43f 39f
1:12 11 15 mph 1007.5mb 43f 39f
1:06 14 23 mph 1007.6mb 43f 39f
1:00 18 23 mph 1007.6mb 42f 40f
12:54 14 20 mph 1007.6mb 42f 40f